This is the latest recevied weather packets stored in our database for station/object ED4YAF-13. If no packets are shown the sender has not sent any weather packets the latest 10 day(s).
| Time | Temp. | Humidity | Pressure | Rain* | Wind** | Luminosity | Snow |
|---|---|---|---|---|---|---|---|
| 1788080218 | 18.89° C | 32% | 1015.7 hPa | - | - | - | - |
| 1788079308 | 18.33° C | 32% | 1016 hPa | - | - | - | - |
| 1788078416 | 17.78° C | 33% | 1016.3 hPa | - | - | - | - |
| 1788077508 | 17.22° C | 34% | 1016.8 hPa | - | - | - | - |
| 1788077323 | 16.67° C | 35% | 1017.3 hPa | - | - | - | - |
| 1788076605 | 16.67° C | 35% | 1017.3 hPa | - | - | - | - |
| 1788075698 | 16.11° C | 37% | 1017.6 hPa | - | - | - | - |
| 1788074798 | 15.56° C | 37% | 1017.8 hPa | - | - | - | - |
| 1788073898 | 15.56° C | 37% | 1018 hPa | - | - | - | - |
| 1788073005 | 15° C | 37% | 1018.1 hPa | - | - | - | - |
| 1788071918 | 14.44° C | 37% | 1018.4 hPa | - | - | - | - |
| 1788071018 | 14.44° C | 38% | 1018.6 hPa | - | - | - | - |
| 1788070118 | 13.89° C | 39% | 1018.9 hPa | - | - | - | - |
| 1788069218 | 13.33° C | 39% | 1019.1 hPa | - | - | - | - |
| 1788068325 | 13.33° C | 40% | 1019 hPa | - | - | - | - |
| 1788067418 | 13.33° C | 41% | 1019 hPa | - | - | - | - |
| 1788066518 | 13.33° C | 40% | 1018.9 hPa | - | - | - | - |
| 1788065618 | 13.33° C | 39% | 1018.8 hPa | - | - | - | - |
| 1788064697 | 13.33° C | 39% | 1018.9 hPa | - | - | - | - |
| 1788063785 | 13.33° C | 39% | 1018.7 hPa | - | - | - | - |
| 1788062883 | 13.33° C | 38% | 1018.6 hPa | - | - | - | - |
| 1788061981 | 13.33° C | 38% | 1018.6 hPa | - | - | - | - |
| 1788061084 | 13.89° C | 38% | 1018.5 hPa | - | - | - | - |
| 1788060160 | 13.33° C | 38% | 1018.6 hPa | - | - | - | - |
| 1788059260 | 13.89° C | 38% | 1018.6 hPa | - | - | - | - |
* Rain since midnight (hover to see other rain measurements)
** Current wind speed in m/s (hover to see current wind gust speed)